Regional Weather Roundup
Issued by NWS

Home | Current Version | Previous Version | Text Only | Print | Product List | Glossary On
Versions: 1 2 3 4 5 6 7 8 9 10 11 12 13 14 15 16 17 18 19 20 21 22 23 24 25 26 27 28 29 30 31 32 33 34 35 36 37 38 39 40 41 42 43 44 45 46 47 48 49 50
000
ASUS44 KOUN 020010
RWROK

WEATHER ROUNDUP FOR OKLAHOMA
NATIONAL WEATHER SERVICE NORMAN OK
700 PM CDT TUE SEP 01 2015

NOTE: "FAIR" INDICATES FEW OR NO CLOUDS BELOW 12,000 FEET WITH NO
      SIGNIFICANT WEATHER AND/OR OBSTRUCTIONS TO VISIBILITY.

OKZ001>007-009>012-014-015-017-020100-
NORTHWEST OKLAHOMA AND THE PANHANDLE

CITY           SKY/WX    TMP DP  RH WIND       PRES   REMARKS
GAGE           SUNNY     92  56  29 S20       29.96R HX  90
6HR MIN TEMP:  92; 6HR MAX TEMP:  97;

GUYMON         PTSUNNY   89  54  30 S13       29.95R
ENID/WOODRING  SUNNY     91  63  38 SE15G23   29.93R HX  92
$$

OKZ016-021>023-033>039-044-045-020100-
SOUTHWEST OKLAHOMA

CITY           SKY/WX    TMP DP  RH WIND       PRES   REMARKS
LAWTON/REGL    SUNNY     93  60  33 SE15      29.95R HX  93
6HR MIN TEMP:  92; 6HR MAX TEMP:  96;

LAWTON/FT SILL SUNNY     91  62  38 SE15      29.94S HX  91
FREDERICK      SUNNY     93  60  33 SE15      29.92S HX  93
CLINTON        SUNNY     93  56  28 S17G23    29.98R HX  91
HOBART         SUNNY     93  58  30 S16       29.96R HX  92
ALTUS AFB      SUNNY     91  62  37 SE13      29.94R HX  91
$$

OKZ018>020-024>031-020100-
CENTRAL OKLAHOMA

CITY           SKY/WX    TMP DP  RH WIND       PRES   REMARKS
OKLAHOMA CITY  MOSUNNY   89  63  41 S13       29.97S HX  90
6HR MIN TEMP:  89; 6HR MAX TEMP:  93;

OKC/WILEY POST SUNNY     90  62  39 S15       29.97R HX  90
OKC/TINKER AFB SUNNY     89  65  46 S7        29.97S HX  90
STILLWATER     SUNNY     90  64  42 SE13      29.96R HX  91
GUTHRIE        SUNNY     91  63  39 S9        29.96R HX  92
$$

OKZ008-013-054>072-020100-
NORTHEAST OKLAHOMA

CITY           SKY/WX    TMP DP  RH WIND       PRES   REMARKS
TULSA          CLEAR     88  68  51 SE13      29.97R HX  91
6HR MIN TEMP:  87; 6HR MAX TEMP:  91;

TULSA/JONES    CLEAR     89  66  46 S9        29.98R HX  91
PONCA CITY     SUNNY     89  68  49 SE14      29.95R HX  93
MUSKOGEE       CLEAR     85  71  63 SE7       30.00S HX  90
$$

OKZ032-040>043-046>053-073>077-020100-
SOUTH CENTRAL/SOUTHEAST OKLAHOMA

CITY           SKY/WX    TMP DP  RH WIND       PRES   REMARKS
ARDMORE/DWNTWN SUNNY     90  57  33 SE3       29.97S
MCALESTER      CLEAR     88  68  51 S3        30.00R HX  91
$$



USA.gov is the U.S. government's official web portal to all federal, state and local government web resources and services.